,,Stat6,,Stat2,,Stat8,,Stat9,,Stat10,,Wind1,,Wind1,
time,status,PA1M_AVG,status,PR1M_SUM,status,RH1M_AVG,status,SR1M_AVG,status,TA1M_AVG,status,W1dAve1m,status,W1sAve1m,
2009-02-13, 00:00:00,VALID,917.75,VALID,0,VALID,96.1549,VALID,0.0169808,VALID,19.2706,VALID,61,VALID,0,
2009-02-13, 00:01:00,VALID,917.722,VALID,0,VALID,96.216,VALID,0.0169808,VALID,19.2678,VALID,61,VALID,0,
2009-02-13, 00:02:00,VALID,917.701,VALID,0,VALID,96.5479,VALID,0,VALID,19.2968,VALID,61,VALID,0,
2009-02-13, 00:03:00,VALID,917.687,VALID,0,VALID,96.3927,VALID,0.0169808,VALID,19.3222,VALID,63,VALID,0.0792683,
2009-02-13, 00:04:00,VALID,917.673,VALID,0,VALID,96.5199,VALID,0.0339617,VALID,19.3417,VALID,53,VALID,0.84096,
2009-02-13, 00:05:00,VALID,917.655,VALID,0,VALID,96.5021,VALID,0.0339617,VALID,19.3878,VALID,51,VALID,0.0683594,
2009-02-13, 00:06:00,VALID,917.66,VALID,0,VALID,96.0443,VALID,0.0169808,VALID,19.3874,VALID,51,VALID,0,
2009-02-13, 00:07:00,VALID,917.637,VALID,0,VALID,96.2083,VALID,0.0509425,VALID,19.3776,VALID,51,VALID,0,
2009-02-13, 00:08:00,VALID,917.611,VALID,0,VALID,96.2325,VALID,-0.0679233,VALID,19.3986,VALID,51,VALID,0,
2009-02-13, 00:09:00,VALID,917.615,VALID,0,VALID,96.4131,VALID,-0.101885,VALID,19.4118,VALID,47,VALID,0,
2009-02-13, 00:10:00,VALID,917.595,VALID,0,VALID,96.422,VALID,-0.101885,VALID,19.4347,VALID,38,VALID,0.138081,
2009-02-13, 00:11:00,VALID,917.605,VALID,0,VALID,96.2706,VALID,-0.118866,VALID,19.4315,VALID,40,VALID,0.249414,
2009-02-13, 00:12:00,VALID,917.599,VALID,0,VALID,96.3419,VALID,-0.101885,VALID,19.428,VALID,40,VALID,0,
2009-02-13, 00:13:00,VALID,917.593,VALID,0,VALID,96.6178,VALID,-0.101885,VALID,19.4607,VALID,40,VALID,0,
2009-02-13, 00:14:00,VALID,917.589,VALID,0,VALID,96.3787,VALID,-0.118866,VALID,19.4802,VALID,40,VALID,0,
2009-02-13, 00:15:00,VALID,917.594,VALID,0,VALID,96.2897,VALID,-0.101885,VALID,19.451,VALID,40,VALID,0.196766,
2009-02-13, 00:16:00,VALID,917.599,VALID,0,VALID,96.4181,VALID,-0.0849042,VALID,19.4542,VALID,40,VALID,0,
2009-02-13, 00:17:00,VALID,917.601,VALID,0,VALID,96.5733,VALID,-0.101885,VALID,19.451,VALID,40,VALID,0,
2009-02-13, 00:18:00,VALID,917.593,VALID,0,VALID,96.6559,VALID,-0.118866,VALID,19.438,VALID,40,VALID,0,
2009-02-13, 00:19:00,VALID,917.588,VALID,0,VALID,96.8149,VALID,-0.101885,VALID,19.4183,VALID,40,VALID,0.0725204,
2009-02-13, 00:20:00,VALID,917.569,VALID,0,VALID,96.9637,VALID,-0.101885,VALID,19.4445,VALID,40,VALID,0.0890262,
2009-02-13, 00:21:00,VALID,917.558,VALID,0,VALID,97.0311,VALID,-0.101885,VALID,19.4282,VALID,40,VALID,0,
2009-02-13, 00:22:00,VALID,917.553,VALID,0,VALID,97.2599,VALID,-0.101885,VALID,19.4639,VALID,40,VALID,0,
2009-02-13, 00:23:00,VALID,917.541,VALID,0,VALID,97.2638,VALID,0,VALID,19.4752,VALID,40,VALID,0,
2009-02-13, 00:24:00,VALID,917.546,VALID,0,VALID,97.0387,VALID,0,VALID,19.4687,VALID,40,VALID,0,
2009-02-13, 00:25:00,VALID,917.532,VALID,0,VALID,96.7424,VALID,-0.0169808,VALID,19.459,VALID,40,VALID,0,
2009-02-13, 00:26:00,VALID,917.526,VALID,0,VALID,96.1244,VALID,0.0169808,VALID,19.3878,VALID,41,VALID,0,
2009-02-13, 00:27:00,VALID,917.503,VALID,0,VALID,96.2872,VALID,-0.0169808,VALID,19.31,VALID,41,VALID,0,
2009-02-13, 00:28:00,VALID,917.497,VALID,0,VALID,96.7259,VALID,-0.0169808,VALID,19.271,VALID,74,VALID,0,
2009-02-13, 00:29:00,VALID,917.479,VALID,0,VALID,96.8708,VALID,0,VALID,19.2516,VALID,172,VALID,0,
2009-02-13, 00:30:00,VALID,917.456,VALID,0,VALID,96.7284,VALID,0,VALID,19.2029,VALID,172,VALID,0,
2009-02-13, 00:31:00,VALID,917.447,VALID,0,VALID,96.7488,VALID,-0.0509425,VALID,19.1191,VALID,172,VALID,0,
2009-02-13, 00:32:00,VALID,917.467,VALID,0,VALID,96.9904,VALID,-0.0169808,VALID,19.0567,VALID,172,VALID,0,
2009-02-13, 00:33:00,VALID,917.469,VALID,0,VALID,97.1252,VALID,-0.0169808,VALID,19.018,VALID,172,VALID,0,
2009-02-13, 00:34:00,VALID,917.487,VALID,0,VALID,97.2332,VALID,-0.0339617,VALID,18.9888,VALID,172,VALID,0,
2009-02-13, 00:35:00,VALID,917.514,VALID,0,VALID,97.5155,VALID,0,VALID,18.9821,VALID,172,VALID,0,
2009-02-13, 00:36:00,VALID,917.521,VALID,0,VALID,97.5982,VALID,0,VALID,18.9921,VALID,172,VALID,0,
2009-02-13, 00:37:00,VALID,917.528,VALID,0,VALID,97.8462,VALID,0,VALID,18.9986,VALID,172,VALID,0,
2009-02-13, 00:38:00,VALID,917.519,VALID,0,VALID,98.2785,VALID,-0.0169808,VALID,19.0572,VALID,172,VALID,0,
2009-02-13, 00:39:00,VALID,917.493,VALID,0,VALID,98.44,VALID,-0.0169808,VALID,19.1153,VALID,172,VALID,0,
2009-02-13, 00:40:00,VALID,917.486,VALID,0,VALID,98.3344,VALID,-0.0339617,VALID,19.161,VALID,172,VALID,0,
2009-02-13, 00:41:00,VALID,917.469,VALID,0,VALID,97.8996,VALID,0,VALID,19.1445,VALID,172,VALID,0,
2009-02-13, 00:42:00,VALID,917.443,VALID,0,VALID,97.9225,VALID,0,VALID,19.1251,VALID,172,VALID,0,
2009-02-13, 00:43:00,VALID,917.41,VALID,0,VALID,97.9784,VALID,0.0339617,VALID,19.1153,VALID,172,VALID,0,
2009-02-13, 00:44:00,VALID,917.377,VALID,0,VALID,98.0572,VALID,-0.0169808,VALID,19.0864,VALID,172,VALID,0,
2009-02-13, 00:45:00,VALID,917.357,VALID,0,VALID,98.3268,VALID,-0.0339617,VALID,19.0667,VALID,172,VALID,0,
2009-02-13, 00:46:00,VALID,917.339,VALID,0,VALID,98.426,VALID,0.0169808,VALID,19.024,VALID,172,VALID,0,
2009-02-13, 00:47:00,VALID,917.332,VALID,0,VALID,98.6803,VALID,0,VALID,19.0018,VALID,172,VALID,0,
2009-02-13, 00:48:00,VALID,917.32,VALID,0,VALID,99.0822,VALID,-0.0339617,VALID,19.011,VALID,172,VALID,0,
2009-02-13, 00:49:00,VALID,917.305,VALID,0,VALID,99.1941,VALID,-0.0169808,VALID,19.031,VALID,172,VALID,0,
2009-02-13, 00:50:00,VALID,917.285,VALID,0,VALID,99.1813,VALID,0,VALID,19.0245,VALID,172,VALID,0,
2009-02-13, 00:51:00,VALID,917.289,VALID,0,VALID,99.3797,VALID,0,VALID,19.0342,VALID,172,VALID,0,
2009-02-13, 00:52:00,VALID,917.29,VALID,0,VALID,99.2144,VALID,-0.0169808,VALID,19.0213,VALID,172,VALID,0,
2009-02-13, 00:53:00,VALID,917.286,VALID,0,VALID,99.1381,VALID,-0.0169808,VALID,18.9566,VALID,172,VALID,0,
2009-02-13, 00:54:00,VALID,917.277,VALID,0,VALID,98.9919,VALID,-0.0169808,VALID,18.8915,VALID,172,VALID,0,
2009-02-13, 00:55:00,VALID,917.265,VALID,0,VALID,98.7922,VALID,0,VALID,18.8139,VALID,159,VALID,0,
2009-02-13, 00:56:00,VALID,917.262,VALID,0,VALID,99.2398,VALID,0,VALID,18.7875,VALID,154,VALID,0,
2009-02-13, 00:57:00,VALID,917.268,VALID,0,VALID,99.5348,VALID,-0.0169808,VALID,18.7845,VALID,149,VALID,0,
2009-02-13, 00:58:00,VALID,917.267,VALID,0,VALID,99.5081,VALID,-0.0339617,VALID,18.7423,VALID,140,VALID,0,
2009-02-13, 00:59:00,VALID,917.272,VALID,0,VALID,99.5132,VALID,0,VALID,18.6902,VALID,140,VALID,0,
2009-02-13, 01:00:00,VALID,917.28,VALID,0,VALID,99.676,VALID,0,VALID,18.6478,VALID,140,VALID,0,
2009-02-13, 01:01:00,VALID,917.288,VALID,0,VALID,99.7065,VALID,-0.0169808,VALID,18.5864,VALID,140,VALID,0,
2009-02-13, 01:02:00,VALID,917.287,VALID,0,VALID,99.6709,VALID,0,VALID,18.5282,VALID,140,VALID,0,
2009-02-13, 01:03:00,VALID,917.281,VALID,0,VALID,99.8222,VALID,0,VALID,18.4858,VALID,140,VALID,0,
2009-02-13, 01:04:00,VALID,917.294,VALID,0,VALID,99.7269,VALID,-0.0169808,VALID,18.4274,VALID,140,VALID,0,
2009-02-13, 01:05:00,VALID,917.291,VALID,0,VALID,99.7675,VALID,0,VALID,18.3654,VALID,140,VALID,0,
2009-02-13, 01:06:00,VALID,917.282,VALID,0,VALID,100,VALID,0.0169808,VALID,18.3855,VALID,140,VALID,0,
2009-02-13, 01:07:00,VALID,917.261,VALID,0,VALID,100,VALID,0.0509425,VALID,18.4467,VALID,140,VALID,0,
2009-02-13, 01:08:00,VALID,917.266,VALID,0,VALID,100,VALID,0,VALID,18.5081,VALID,140,VALID,0,
2009-02-13, 01:09:00,VALID,917.271,VALID,0,VALID,100,VALID,0.0169808,VALID,18.5345,VALID,140,VALID,0,
2009-02-13, 01:10:00,VALID,917.266,VALID,0,VALID,100,VALID,-0.0169808,VALID,18.404,VALID,140,VALID,0,
2009-02-13, 01:11:00,VALID,917.249,VALID,0,VALID,100,VALID,0,VALID,18.3918,VALID,140,VALID,0,
2009-02-13, 01:12:00,VALID,917.22,VALID,0,VALID,100,VALID,0.0169808,VALID,18.3848,VALID,130,VALID,0,
2009-02-13, 01:13:00,VALID,917.189,VALID,0,VALID,100,VALID,0,VALID,18.5282,VALID,106,VALID,0,
2009-02-13, 01:14:00,VALID,917.164,VALID,0,VALID,100,VALID,0,VALID,18.6417,VALID,98,VALID,0,
2009-02-13, 01:15:00,VALID,917.13,VALID,0,VALID,100,VALID,0.0169808,VALID,18.5736,VALID,98,VALID,0,
2009-02-13, 01:16:00,VALID,917.092,VALID,0,VALID,100,VALID,0,VALID,18.5312,VALID,98,VALID,0,
2009-02-13, 01:17:00,VALID,917.079,VALID,0,VALID,100,VALID,-0.0169808,VALID,18.4886,VALID,98,VALID,0,
2009-02-13, 01:18:00,VALID,917.051,VALID,0,VALID,100,VALID,0,VALID,18.4467,VALID,98,VALID,0,
2009-02-13, 01:19:00,VALID,917.036,VALID,0,VALID,100,VALID,0,VALID,18.4335,VALID,98,VALID,0,
2009-02-13, 01:20:00,VALID,917.017,VALID,0,VALID,100,VALID,0.0169808,VALID,18.4434,VALID,98,VALID,0,
2009-02-13, 01:21:00,VALID,917,VALID,0,VALID,100,VALID,0,VALID,18.4138,VALID,102,VALID,0,
2009-02-13, 01:22:00,VALID,916.987,VALID,0,VALID,100,VALID,-0.0169808,VALID,18.4077,VALID,134,VALID,0,
2009-02-13, 01:23:00,VALID,916.97,VALID,0,VALID,100,VALID,-0.0169808,VALID,18.4015,VALID,143,VALID,0.316406,
2009-02-13, 01:24:00,VALID,916.936,VALID,0,VALID,100,VALID,-0.0169808,VALID,18.3691,VALID,145,VALID,0,
2009-02-13, 01:25:00,VALID,916.931,VALID,0,VALID,100,VALID,-0.0169808,VALID,18.3366,VALID,145,VALID,0,
2009-02-13, 01:26:00,VALID,916.916,VALID,0,VALID,100,VALID,0,VALID,18.294,VALID,144,VALID,0,
2009-02-13, 01:27:00,VALID,916.894,VALID,0,VALID,100,VALID,0,VALID,18.275,VALID,127,VALID,0,
2009-02-13, 01:28:00,VALID,916.886,VALID,0,VALID,100,VALID,0.0169808,VALID,18.3487,VALID,125,VALID,0,
2009-02-13, 01:29:00,VALID,916.853,VALID,0,VALID,100,VALID,0.0169808,VALID,18.3559,VALID,125,VALID,0,
2009-02-13, 01:30:00,VALID,916.84,VALID,0,VALID,100,VALID,0.0679233,VALID,18.2972,VALID,113,VALID,0,
2009-02-13, 01:31:00,VALID,916.816,VALID,0,VALID,100,VALID,0,VALID,18.2579,VALID,122,VALID,0,
2009-02-13, 01:32:00,VALID,916.802,VALID,0,VALID,100,VALID,0.0339617,VALID,18.2317,VALID,125,VALID,0,
2009-02-13, 01:33:00,VALID,916.764,VALID,0,VALID,100,VALID,0.0339617,VALID,18.1935,VALID,125,VALID,0,
2009-02-13, 01:34:00,VALID,916.74,VALID,0,VALID,100,VALID,0,VALID,18.155,VALID,132,VALID,0,
2009-02-13, 01:35:00,VALID,916.71,VALID,0,VALID,100,VALID,0.0169808,VALID,18.1124,VALID,139,VALID,0.0400815,
2009-02-13, 01:36:00,VALID,916.688,VALID,0,VALID,100,VALID,0.0169808,VALID,18.0735,VALID,145,VALID,0.0390625,
2009-02-13, 01:37:00,VALID,916.686,VALID,0,VALID,100,VALID,0.0339617,VALID,18.0341,VALID,147,VALID,0.358487,
2009-02-13, 01:38:00,VALID,916.664,VALID,0,VALID,100,VALID,-0.0169808,VALID,18.0218,VALID,157,VALID,0.235156,
2009-02-13, 01:39:00,VALID,916.629,VALID,0,VALID,100,VALID,0.0169808,VALID,18.0147,VALID,145,VALID,0,
2009-02-13, 01:40:00,VALID,916.635,VALID,0,VALID,100,VALID,0.0169808,VALID,18.0214,VALID,143,VALID,0,
2009-02-13, 01:41:00,VALID,916.634,VALID,0,VALID,100,VALID,0.0339617,VALID,18.0209,VALID,143,VALID,0.127204,
2009-02-13, 01:42:00,VALID,916.624,VALID,0,VALID,100,VALID,0,VALID,18.0279,VALID,143,VALID,0,
2009-02-13, 01:43:00,VALID,916.628,VALID,0,VALID,100,VALID,0.0509425,VALID,18.0436,VALID,143,VALID,0,
2009-02-13, 01:44:00,VALID,916.623,VALID,0,VALID,100,VALID,0.0169808,VALID,18.0862,VALID,143,VALID,0,
2009-02-13, 01:45:00,VALID,916.637,VALID,0,VALID,100,VALID,0.0169808,VALID,18.1057,VALID,143,VALID,0,
2009-02-13, 01:46:00,VALID,916.619,VALID,0,VALID,100,VALID,0.0169808,VALID,18.1184,VALID,143,VALID,0,
2009-02-13, 01:47:00,VALID,916.603,VALID,0,VALID,100,VALID,0.0339617,VALID,18.1219,VALID,143,VALID,0,
2009-02-13, 01:48:00,VALID,916.594,VALID,0,VALID,100,VALID,0.0339617,VALID,18.1509,VALID,139,VALID,0,
2009-02-13, 01:49:00,VALID,916.576,VALID,0,VALID,100,VALID,0,VALID,18.1604,VALID,139,VALID,0,
2009-02-13, 01:50:00,VALID,916.546,VALID,0,VALID,100,VALID,0.0169808,VALID,18.1576,VALID,139,VALID,0,
2009-02-13, 01:51:00,VALID,916.529,VALID,0,VALID,100,VALID,0,VALID,18.1249,VALID,139,VALID,0,
2009-02-13, 01:52:00,VALID,916.514,VALID,0,VALID,100,VALID,-0.0169808,VALID,18.115,VALID,139,VALID,0,
2009-02-13, 01:53:00,VALID,916.502,VALID,0,VALID,100,VALID,-0.0509425,VALID,18.123,VALID,139,VALID,0,
2009-02-13, 01:54:00,VALID,916.495,VALID,0,VALID,100,VALID,-0.101885,VALID,18.1172,VALID,139,VALID,0,
2009-02-13, 01:55:00,VALID,916.5,VALID,0,VALID,100,VALID,-0.101885,VALID,18.1038,VALID,139,VALID,0,
2009-02-13, 01:56:00,VALID,916.497,VALID,0,VALID,100,VALID,-0.101885,VALID,18.0908,VALID,142,VALID,0.0424679,
2009-02-13, 01:57:00,VALID,916.496,VALID,0,VALID,100,VALID,-0.118866,VALID,18.1043,VALID,154,VALID,0.0308866,
2009-02-13, 01:58:00,VALID,916.505,VALID,0,VALID,100,VALID,-0.0849042,VALID,18.1135,VALID,158,VALID,0.00111607,
2009-02-13, 01:59:00,VALID,916.516,VALID,0,VALID,100,VALID,-0.0849042,VALID,18.1622,VALID,162,VALID,0.0634527,
2009-02-13, 02:00:00,VALID,916.514,VALID,0,VALID,100,VALID,-0.101885,VALID,18.1979,VALID,162,VALID,0,
2009-02-13, 02:01:00,VALID,916.513,VALID,0,VALID,100,VALID,-0.101885,VALID,18.2206,VALID,162,VALID,0,
2009-02-13, 02:02:00,VALID,916.518,VALID,0,VALID,100,VALID,-0.118866,VALID,18.2366,VALID,162,VALID,0.136628,
2009-02-13, 02:03:00,VALID,916.513,VALID,0,VALID,100,VALID,-0.0849042,VALID,18.2495,VALID,163,VALID,0.331522,
2009-02-13, 02:04:00,VALID,916.503,VALID,0,VALID,100,VALID,-0.101885,VALID,18.272,VALID,154,VALID,0,
2009-02-13, 02:05:00,VALID,916.481,VALID,0,VALID,100,VALID,-0.118866,VALID,18.2924,VALID,154,VALID,0,
2009-02-13, 02:06:00,VALID,916.469,VALID,0,VALID,100,VALID,-0.0849042,VALID,18.3051,VALID,154,VALID,0,
2009-02-13, 02:07:00,VALID,916.457,VALID,0,VALID,100,VALID,-0.0509425,VALID,18.3244,VALID,154,VALID,0,
2009-02-13, 02:08:00,VALID,916.468,VALID,0,VALID,100,VALID,0.0169808,VALID,18.313,VALID,154,VALID,0,
2009-02-13, 02:09:00,VALID,916.472,VALID,0,VALID,100,VALID,0.0169808,VALID,18.3098,VALID,147,VALID,0,
2009-02-13, 02:10:00,VALID,916.471,VALID,0,VALID,100,VALID,0.0339617,VALID,18.3586,VALID,138,VALID,0,
2009-02-13, 02:11:00,VALID,916.466,VALID,0,VALID,100,VALID,0,VALID,18.3779,VALID,138,VALID,0,
2009-02-13, 02:12:00,VALID,916.446,VALID,0,VALID,100,VALID,0.0169808,VALID,18.3843,VALID,138,VALID,0,
2009-02-13, 02:13:00,VALID,916.437,VALID,0,VALID,100,VALID,0.0509425,VALID,18.4135,VALID,138,VALID,0,
2009-02-13, 02:14:00,VALID,916.421,VALID,0,VALID,100,VALID,0,VALID,18.427,VALID,138,VALID,0,
2009-02-13, 02:15:00,VALID,916.406,VALID,0,VALID,100,VALID,0,VALID,18.4045,VALID,135,VALID,0,
2009-02-13, 02:16:00,VALID,916.409,VALID,0,VALID,100,VALID,0,VALID,18.3816,VALID,133,VALID,0.276105,
2009-02-13, 02:17:00,VALID,916.411,VALID,0,VALID,100,VALID,0,VALID,18.3684,VALID,133,VALID,0,
2009-02-13, 02:18:00,VALID,916.402,VALID,0,VALID,100,VALID,0,VALID,18.3521,VALID,133,VALID,0,
2009-02-13, 02:19:00,VALID,916.396,VALID,0,VALID,100,VALID,0,VALID,18.3811,VALID,133,VALID,0,
2009-02-13, 02:20:00,VALID,916.415,VALID,0,VALID,100,VALID,0.0169808,VALID,18.4267,VALID,133,VALID,0,
2009-02-13, 02:21:00,VALID,916.42,VALID,0,VALID,100,VALID,0,VALID,18.4529,VALID,132,VALID,0,
2009-02-13, 02:22:00,VALID,916.405,VALID,0,VALID,100,VALID,0.0509425,VALID,18.4235,VALID,131,VALID,0,
2009-02-13, 02:23:00,VALID,916.383,VALID,0,VALID,100,VALID,0.0509425,VALID,18.4003,VALID,124,VALID,0,
2009-02-13, 02:24:00,VALID,916.376,VALID,0,VALID,100,VALID,0.0169808,VALID,18.4233,VALID,124,VALID,0,
2009-02-13, 02:25:00,VALID,916.379,VALID,0,VALID,100,VALID,0.0169808,VALID,18.4328,VALID,122,VALID,0,
2009-02-13, 02:26:00,VALID,916.392,VALID,0,VALID,100,VALID,0.0679233,VALID,18.4587,VALID,107,VALID,0,
2009-02-13, 02:27:00,VALID,916.381,VALID,0,VALID,100,VALID,0.0339617,VALID,18.4557,VALID,123,VALID,0,
2009-02-13, 02:28:00,VALID,916.379,VALID,0,VALID,100,VALID,-0.0339617,VALID,18.4821,VALID,114,VALID,0,
2009-02-13, 02:29:00,VALID,916.393,VALID,0,VALID,100,VALID,0,VALID,18.4911,VALID,116,VALID,0,
2009-02-13, 02:30:00,VALID,916.402,VALID,0,VALID,100,VALID,0.0169808,VALID,18.5113,VALID,118,VALID,0,
2009-02-13, 02:31:00,VALID,916.414,VALID,0,VALID,100,VALID,0.0169808,VALID,18.5043,VALID,118,VALID,0,
2009-02-13, 02:32:00,VALID,916.428,VALID,0,VALID,100,VALID,0.0339617,VALID,18.4687,VALID,118,VALID,0,
2009-02-13, 02:33:00,VALID,916.425,VALID,0,VALID,100,VALID,0.0339617,VALID,18.3906,VALID,118,VALID,0,
2009-02-13, 02:34:00,VALID,916.415,VALID,0,VALID,100,VALID,0,VALID,18.3749,VALID,118,VALID,0,
2009-02-13, 02:35:00,VALID,916.409,VALID,0,VALID,100,VALID,-0.0169808,VALID,18.4006,VALID,118,VALID,0,
2009-02-13, 02:36:00,VALID,916.406,VALID,0,VALID,100,VALID,0,VALID,18.4432,VALID,118,VALID,0,
2009-02-13, 02:37:00,VALID,916.414,VALID,0,VALID,100,VALID,0,VALID,18.4694,VALID,118,VALID,0,
2009-02-13, 02:38:00,VALID,916.415,VALID,0,VALID,100,VALID,0,VALID,18.4497,VALID,118,VALID,0,
2009-02-13, 02:39:00,VALID,916.409,VALID,0,VALID,100,VALID,0.0169808,VALID,18.4946,VALID,118,VALID,0,
2009-02-13, 02:40:00,VALID,916.391,VALID,0,VALID,100,VALID,0,VALID,18.5597,VALID,118,VALID,0,
2009-02-13, 02:41:00,VALID,916.389,VALID,0,VALID,100,VALID,0,VALID,18.563,VALID,118,VALID,0,
2009-02-13, 02:42:00,VALID,916.377,VALID,0,VALID,100,VALID,0,VALID,18.5009,VALID,118,VALID,0,
2009-02-13, 02:43:00,VALID,916.385,VALID,0,VALID,100,VALID,0,VALID,18.4203,VALID,118,VALID,0,
2009-02-13, 02:44:00,VALID,916.397,VALID,0,VALID,100,VALID,-0.0169808,VALID,18.4071,VALID,118,VALID,0,
2009-02-13, 02:45:00,VALID,916.39,VALID,0,VALID,100,VALID,0,VALID,18.3649,VALID,118,VALID,0,
2009-02-13, 02:46:00,VALID,916.388,VALID,0,VALID,100,VALID,0.0339617,VALID,18.3394,VALID,118,VALID,0,
2009-02-13, 02:47:00,VALID,916.372,VALID,0,VALID,100,VALID,0,VALID,18.3457,VALID,118,VALID,0,
2009-02-13, 02:48:00,VALID,916.353,VALID,0,VALID,100,VALID,0.0509425,VALID,18.4038,VALID,118,VALID,0,
2009-02-13, 02:49:00,VALID,916.332,VALID,0,VALID,100,VALID,0.0169808,VALID,18.4457,VALID,118,VALID,0,
2009-02-13, 02:50:00,VALID,916.319,VALID,0,VALID,100,VALID,0.0509425,VALID,18.4849,VALID,118,VALID,0,
2009-02-13, 02:51:00,VALID,916.295,VALID,0,VALID,100,VALID,0.0339617,VALID,18.4522,VALID,118,VALID,0,
2009-02-13, 02:52:00,VALID,916.279,VALID,0,VALID,100,VALID,0,VALID,18.3744,VALID,118,VALID,0,
2009-02-13, 02:53:00,VALID,916.28,VALID,0,VALID,100,VALID,-0.0169808,VALID,18.3125,VALID,118,VALID,0,
2009-02-13, 02:54:00,VALID,916.265,VALID,0,VALID,100,VALID,0.0169808,VALID,18.2481,VALID,118,VALID,0,
2009-02-13, 02:55:00,VALID,916.259,VALID,0,VALID,100,VALID,0,VALID,18.1671,VALID,118,VALID,0,
2009-02-13, 02:56:00,VALID,916.266,VALID,0,VALID,100,VALID,0,VALID,18.0925,VALID,118,VALID,0,
2009-02-13, 02:57:00,VALID,916.27,VALID,0,VALID,100,VALID,0.0849042,VALID,18.0503,VALID,118,VALID,0,
2009-02-13, 02:58:00,VALID,916.292,VALID,0,VALID,100,VALID,0.0169808,VALID,17.9723,VALID,118,VALID,0,
2009-02-13, 02:59:00,VALID,916.299,VALID,0,VALID,100,VALID,0.0169808,VALID,17.9044,VALID,118,VALID,0,
2009-02-13, 03:00:00,VALID,916.305,VALID,0,VALID,100,VALID,0.0679233,VALID,17.8685,VALID,118,VALID,0,
2009-02-13, 03:01:00,VALID,916.301,VALID,0,VALID,100,VALID,0.0169808,VALID,17.8326,VALID,118,VALID,0,
2009-02-13, 03:02:00,VALID,916.307,VALID,0,VALID,100,VALID,0,VALID,17.8333,VALID,118,VALID,0,
2009-02-13, 03:03:00,VALID,916.292,VALID,0,VALID,100,VALID,0.0339617,VALID,17.872,VALID,118,VALID,0,
2009-02-13, 03:04:00,VALID,916.274,VALID,0,VALID,100,VALID,0.0169808,VALID,17.9822,VALID,118,VALID,0,
2009-02-13, 03:05:00,VALID,916.26,VALID,0,VALID,100,VALID,0.0339617,VALID,18.1045,VALID,118,VALID,0,
2009-02-13, 03:06:00,VALID,916.247,VALID,0,VALID,100,VALID,0.0849042,VALID,18.2282,VALID,118,VALID,0,
2009-02-13, 03:07:00,VALID,916.237,VALID,0,VALID,100,VALID,0.0169808,VALID,18.2546,VALID,118,VALID,0,
2009-02-13, 03:08:00,VALID,916.224,VALID,0,VALID,100,VALID,-0.0339617,VALID,18.2264,VALID,118,VALID,0,
2009-02-13, 03:09:00,VALID,916.205,VALID,0,VALID,100,VALID,-0.0169808,VALID,18.1488,VALID,118,VALID,0,
2009-02-13, 03:10:00,VALID,916.201,VALID,0,VALID,100,VALID,-0.0169808,VALID,18.0962,VALID,118,VALID,0,
2009-02-13, 03:11:00,VALID,916.198,VALID,0,VALID,100,VALID,0,VALID,18.1291,VALID,118,VALID,0,
2009-02-13, 03:12:00,VALID,916.2,VALID,0,VALID,100,VALID,-0.0169808,VALID,18.1096,VALID,118,VALID,0,
2009-02-13, 03:13:00,VALID,916.175,VALID,0,VALID,100,VALID,-0.0509425,VALID,18.0971,VALID,118,VALID,0,
2009-02-13, 03:14:00,VALID,916.168,VALID,0,VALID,100,VALID,-0.0339617,VALID,18.1066,VALID,118,VALID,0,
2009-02-13, 03:15:00,VALID,916.163,VALID,0,VALID,100,VALID,-0.0339617,VALID,18.0834,VALID,118,VALID,0,
2009-02-13, 03:16:00,VALID,916.163,VALID,0,VALID,100,VALID,-0.0339617,VALID,18.1036,VALID,118,VALID,0,
2009-02-13, 03:17:00,VALID,916.168,VALID,0,VALID,100,VALID,-0.0339617,VALID,18.0904,VALID,118,VALID,0,
2009-02-13, 03:18:00,VALID,916.173,VALID,0,VALID,100,VALID,-0.101885,VALID,18.1001,VALID,118,VALID,0,
2009-02-13, 03:19:00,VALID,916.171,VALID,0,VALID,100,VALID,-0.0339617,VALID,18.0807,VALID,118,VALID,0,
2009-02-13, 03:20:00,VALID,916.173,VALID,0,VALID,100,VALID,-0.101885,VALID,18.0709,VALID,118,VALID,0,
2009-02-13, 03:21:00,VALID,916.155,VALID,0,VALID,100,VALID,-0.0849042,VALID,18.0966,VALID,118,VALID,0,
2009-02-13, 03:22:00,VALID,916.158,VALID,0,VALID,100,VALID,-0.0509425,VALID,18.0707,VALID,118,VALID,0,
2009-02-13, 03:23:00,VALID,916.156,VALID,0,VALID,100,VALID,-0.0339617,VALID,18.0837,VALID,118,VALID,0,
2009-02-13, 03:24:00,VALID,916.135,VALID,0,VALID,100,VALID,-0.0169808,VALID,18.1261,VALID,118,VALID,0,
2009-02-13, 03:25:00,VALID,916.149,VALID,0,VALID,100,VALID,-0.0169808,VALID,18.1161,VALID,118,VALID,0,
2009-02-13, 03:26:00,VALID,916.152,VALID,0,VALID,100,VALID,-0.0339617,VALID,18.0772,VALID,118,VALID,0,
2009-02-13, 03:27:00,VALID,916.161,VALID,0,VALID,100,VALID,-0.0339617,VALID,18.0582,VALID,118,VALID,0,
2009-02-13, 03:28:00,VALID,916.152,VALID,0,VALID,100,VALID,-0.0509425,VALID,17.9377,VALID,119,VALID,0,
2009-02-13, 03:29:00,VALID,916.139,VALID,0,VALID,100,VALID,-0.0679233,VALID,17.8926,VALID,132,VALID,0,
2009-02-13, 03:30:00,VALID,916.137,VALID,0,VALID,100,VALID,-0.0339617,VALID,17.8601,VALID,138,VALID,0,
2009-02-13, 03:31:00,VALID,916.151,VALID,0,VALID,100,VALID,-0.0679233,VALID,17.8245,VALID,143,VALID,0,
2009-02-13, 03:32:00,VALID,916.156,VALID,0,VALID,100,VALID,-0.0679233,VALID,17.8117,VALID,150,VALID,0,
2009-02-13, 03:33:00,VALID,916.149,VALID,0,VALID,100,VALID,-0.0849042,VALID,17.7957,VALID,147,VALID,0,
2009-02-13, 03:34:00,VALID,916.121,VALID,0,VALID,100,VALID,-0.101885,VALID,17.7733,VALID,145,VALID,0,
2009-02-13, 03:35:00,VALID,916.11,VALID,0,VALID,100,VALID,-0.0679233,VALID,17.7797,VALID,141,VALID,0,
2009-02-13, 03:36:00,VALID,916.084,VALID,0,VALID,100,VALID,-0.0849042,VALID,17.7631,VALID,128,VALID,0,
2009-02-13, 03:37:00,VALID,916.081,VALID,0,VALID,100,VALID,-0.0679233,VALID,17.7601,VALID,122,VALID,0,
2009-02-13, 03:38:00,VALID,916.051,VALID,0,VALID,100,VALID,-0.0169808,VALID,17.8138,VALID,120,VALID,0,
2009-02-13, 03:39:00,VALID,916.045,VALID,0,VALID,100,VALID,0.0339617,VALID,18.0049,VALID,110,VALID,0,
2009-02-13, 03:40:00,VALID,916.038,VALID,0,VALID,100,VALID,-0.101885,VALID,17.9412,VALID,108,VALID,0,
2009-02-13, 03:41:00,VALID,916.028,VALID,0,VALID,100,VALID,-0.101885,VALID,17.8083,VALID,108,VALID,0,
2009-02-13, 03:42:00,VALID,916.01,VALID,0,VALID,100,VALID,-0.101885,VALID,17.786,VALID,108,VALID,0,
2009-02-13, 03:43:00,VALID,915.993,VALID,0,VALID,100,VALID,-0.101885,VALID,17.7888,VALID,108,VALID,0,
2009-02-13, 03:44:00,VALID,915.99,VALID,0,VALID,100,VALID,-0.0679233,VALID,17.7791,VALID,108,VALID,0,
2009-02-13, 03:45:00,VALID,915.964,VALID,0,VALID,100,VALID,-0.0679233,VALID,17.7726,VALID,108,VALID,0,
2009-02-13, 03:46:00,VALID,915.942,VALID,0,VALID,100,VALID,-0.0679233,VALID,17.8634,VALID,108,VALID,0,
2009-02-13, 03:47:00,VALID,915.938,VALID,0,VALID,100,VALID,-0.0849042,VALID,17.9412,VALID,108,VALID,0,
2009-02-13, 03:48:00,VALID,915.967,VALID,0,VALID,100,VALID,-0.0509425,VALID,17.9382,VALID,108,VALID,0,
2009-02-13, 03:49:00,VALID,915.942,VALID,0,VALID,100,VALID,-0.0339617,VALID,17.896,VALID,108,VALID,0,
2009-02-13, 03:50:00,VALID,915.942,VALID,0,VALID,100,VALID,-0.0679233,VALID,17.9282,VALID,108,VALID,0,
2009-02-13, 03:51:00,VALID,915.944,VALID,0,VALID,100,VALID,-0.0849042,VALID,18.0221,VALID,108,VALID,0,